Showing default

COSMOS 2465 (GLONASS), 37138

Orbit data source: Space-Track

COSMOS 2465 (GLONASS), 37138 is a Commonwealth of Independent States-origin payload satellite in MEO that was launched on Thu, 02 Sep 2010 UTC via a PROTON-M/DM-2 launch vehicle from the Tyuratam Missile And Space Complex (TTMTR). Payload-class satellites include a variety of spacecraft equipped with specific instruments for various scientific and technological missions. These include communications satellites like Starlink; space stations such as the ISS; scientific satellites like the Hubble; Earth observation satellites from companies like Planet Labs, Umbra, and HawkEye 360; GPS; miniature CubeSats for education and research; and military/defense satellites.

Loading next visibility...
Identifier
37138, 2010-041B
Orbit
MEO
Country
Flag of CISCIS
Related business
Manufacturer
Resehetnev ISS
Mission
Non-operational Defense Navigation
Bus & Motor
URAGAN, Unknown motor
Mass
1,450 kg wet, ~1,200 kg dry
Launch date (UTC)
2010-09-02 (16 years ago)
Launch vehicle
PROTON-M/DM-2
Launch site
Tyuratam Missile And Space Complex (TTMTR)
Object type
Payload
Rocket body
Debris
Shape & HBR
Cyl + 1 Ant + 2 Pan, 3.9 m
Radar Cross Section
8.467 m², Large (>1 m²)

Expand to show TLE details & history
Last TLE update: 1 day ago

TLE from 1 day ago
0 COSMOS 2465 (GLONASS)
1 37138U 10041B   26206.31502437  .00000072  00000-0  00000-0 0  9998
2 37138  63.9126 188.9343 0041166 182.3790 358.7184  2.13098424123673
Epoch: 2026-07-25T07:33Z
TLE epoch observation values (Epoch: 2026-07-25T07:33:38.105Z)
Latitude
-1.03239°
Longitude
-46.99773°
Altitude
19,025.884 km
Speed
3.969 km/s
True Right ascension
00h 37m 45s
True Declination
-1° 01' 50"
Sunlit
Object was in daylight at epoch
Visualization orbit readout
Latitude
Unknown
Longitude
Unknown
Altitude
Unknown
Speed
Unknown
Apparent Right ascension
Unknown
Apparent Declination
Unknown
Sunlit
N/A
Visualization observer readout
Local Sidereal Time
23:22:03
Azimuth
Unknown
Elevation
Unknown
Doppler factor
Unknown
Orbital elements
Apogee altitude
19,234.832 km
Perigee altitude
19,024.82 km
Semi-major axis
25,507.963 km
Eccentricity
0.00412
Inclination
63.9126°
RAAN
188.9343°
Arg. of periapsis
182.379°
True anomaly
358.70779°
Mean anomaly
358.7184°
Eccentric anomaly
358.7131°
Mean motion
0.53276 °/min
Orbital period
675.73 mins
BSTAR
0
Loading maneuver chart data...
Computing Atmospheric mass density...
Loading historical data...
Loading historical data...
Loading historical data...
Loading historical data...
Loading historical data...
Loading historical data...
Loading historical data...

Documentation

Showing up to 5 results
|